# Tabular Observed and Forecast Hydrograph Information
#
# Location: Dry Creek - Modesto (DCMC1)
#
# File Generation Time: 08/30/2026 at 07:12 AM PDT
# Data Interval: 1 Hour
#
# Most Recent Date & Time of Maximum Observed: 08/30/2026 at 02:00 AM PDT
# Maximum Observed Stage: 67.03 Feet
# Maximum Observed Flow: 25 cfs
#
# Earliest Date & Time of Maximum Forecast: 08/30/2026 at 08:00 AM PDT
# Maximum Forecast Stage: 66.95 Feet
# Maximum Forecast Flow: 22 cfs
#
# OBSERVED
#
# Date & Time (Local) Stage (Feet) Flow (cfs) Trend Observed Status
# ---------------------------------------------------------------------------------
08/25/2026 07 AM PDT 66.58 11 Not Applicable
08/25/2026 08 AM PDT 66.58 11 0 Not Applicable
08/25/2026 09 AM PDT 66.58 11 0 Not Applicable
08/25/2026 10 AM PDT 66.58 11 0 Not Applicable
08/25/2026 11 AM PDT 66.62 12 + Not Applicable
08/25/2026 12 PM PDT 66.62 12 0 Not Applicable
08/25/2026 01 PM PDT 66.66 13 + Not Applicable
08/25/2026 02 PM PDT 66.66 13 0 Not Applicable
08/25/2026 03 PM PDT 66.70 14 + Not Applicable
08/25/2026 04 PM PDT 66.70 14 0 Not Applicable
08/25/2026 05 PM PDT 66.70 14 0 Not Applicable
08/25/2026 06 PM PDT 66.73 15 + Not Applicable
08/25/2026 07 PM PDT 66.73 15 0 Not Applicable
08/25/2026 08 PM PDT 66.73 15 0 Not Applicable
08/25/2026 09 PM PDT 66.73 15 0 Not Applicable
08/25/2026 10 PM PDT 66.73 15 0 Not Applicable
08/25/2026 11 PM PDT 66.73 15 0 Not Applicable
08/26/2026 12 AM PDT 66.73 15 0 Not Applicable
08/26/2026 01 AM PDT 66.73 15 0 Not Applicable
08/26/2026 02 AM PDT 66.73 15 0 Not Applicable
08/26/2026 03 AM PDT 66.77 16 + Not Applicable
08/26/2026 04 AM PDT 66.77 16 0 Not Applicable
08/26/2026 05 AM PDT 66.77 16 0 Not Applicable
08/26/2026 06 AM PDT 66.77 16 0 Not Applicable
08/26/2026 07 AM PDT 66.77 16 0 Not Applicable
08/26/2026 08 AM PDT 66.80 17 + Not Applicable
08/26/2026 09 AM PDT 66.80 17 0 Not Applicable
08/26/2026 10 AM PDT 66.80 17 0 Not Applicable
08/26/2026 11 AM PDT 66.83 18 + Not Applicable
08/26/2026 12 PM PDT 66.86 19 + Not Applicable
08/26/2026 01 PM PDT 66.86 19 0 Not Applicable
08/26/2026 02 PM PDT 66.89 20 + Not Applicable
08/26/2026 03 PM PDT 66.92 21 + Not Applicable
08/26/2026 04 PM PDT 66.92 21 0 Not Applicable
08/26/2026 05 PM PDT 66.95 22 + Not Applicable
08/26/2026 06 PM PDT 66.95 22 0 Not Applicable
08/26/2026 07 PM PDT 66.95 22 0 Not Applicable
08/26/2026 08 PM PDT 66.98 23 + Not Applicable
08/26/2026 09 PM PDT 66.98 23 0 Not Applicable
08/26/2026 10 PM PDT 66.98 23 0 Not Applicable
08/26/2026 11 PM PDT 66.98 23 0 Not Applicable
08/27/2026 12 AM PDT 66.95 22 - Not Applicable
08/27/2026 01 AM PDT 66.95 22 0 Not Applicable
08/27/2026 02 AM PDT 66.92 21 - Not Applicable
08/27/2026 03 AM PDT 66.92 21 0 Not Applicable
08/27/2026 04 AM PDT 66.89 20 - Not Applicable
08/27/2026 05 AM PDT 66.86 19 - Not Applicable
08/27/2026 06 AM PDT 66.86 19 0 Not Applicable
08/27/2026 07 AM PDT 66.86 19 0 Not Applicable
08/27/2026 08 AM PDT 66.83 18 - Not Applicable
08/27/2026 09 AM PDT 66.83 18 0 Not Applicable
08/27/2026 10 AM PDT 66.80 17 - Not Applicable
08/27/2026 11 AM PDT 66.80 17 0 Not Applicable
08/27/2026 12 PM PDT 66.80 17 0 Not Applicable
08/27/2026 01 PM PDT 66.80 17 0 Not Applicable
08/27/2026 02 PM PDT 66.80 17 0 Not Applicable
08/27/2026 03 PM PDT 66.80 17 0 Not Applicable
08/27/2026 04 PM PDT 66.80 17 0 Not Applicable
08/27/2026 05 PM PDT 66.80 17 0 Not Applicable
08/27/2026 06 PM PDT 66.83 18 + Not Applicable
08/27/2026 07 PM PDT 66.83 18 0 Not Applicable
08/27/2026 08 PM PDT 66.83 18 0 Not Applicable
08/27/2026 09 PM PDT 66.86 19 + Not Applicable
08/27/2026 10 PM PDT 66.86 19 0 Not Applicable
08/27/2026 11 PM PDT 66.86 19 0 Not Applicable
08/28/2026 12 AM PDT 66.86 19 0 Not Applicable
08/28/2026 01 AM PDT 66.86 19 0 Not Applicable
08/28/2026 02 AM PDT 66.86 19 0 Not Applicable
08/28/2026 03 AM PDT 66.86 19 0 Not Applicable
08/28/2026 04 AM PDT 66.86 19 0 Not Applicable
08/28/2026 05 AM PDT 66.86 19 0 Not Applicable
08/28/2026 06 AM PDT 66.86 19 0 Not Applicable
08/28/2026 07 AM PDT 66.83 18 - Not Applicable
08/28/2026 08 AM PDT 66.83 18 0 Not Applicable
08/28/2026 09 AM PDT 66.83 18 0 Not Applicable
08/28/2026 10 AM PDT 66.83 18 0 Not Applicable
08/28/2026 11 AM PDT 66.83 18 0 Not Applicable
08/28/2026 12 PM PDT 66.83 18 0 Not Applicable
08/28/2026 01 PM PDT 66.83 18 0 Not Applicable
08/28/2026 02 PM PDT 66.83 18 0 Not Applicable
08/28/2026 03 PM PDT 66.83 18 0 Not Applicable
08/28/2026 04 PM PDT 66.83 18 0 Not Applicable
08/28/2026 05 PM PDT 66.83 18 0 Not Applicable
08/28/2026 06 PM PDT 66.83 18 0 Not Applicable
08/28/2026 07 PM PDT 66.83 18 0 Not Applicable
08/28/2026 08 PM PDT 66.83 18 0 Not Applicable
08/28/2026 09 PM PDT 66.83 18 0 Not Applicable
08/28/2026 10 PM PDT 66.83 18 0 Not Applicable
08/28/2026 11 PM PDT 66.83 18 0 Not Applicable
08/29/2026 12 AM PDT 66.83 18 0 Not Applicable
08/29/2026 01 AM PDT 66.83 18 0 Not Applicable
08/29/2026 02 AM PDT 66.80 17 - Not Applicable
08/29/2026 03 AM PDT 66.80 17 0 Not Applicable
08/29/2026 04 AM PDT 66.80 17 0 Not Applicable
08/29/2026 05 AM PDT 66.80 17 0 Not Applicable
08/29/2026 06 AM PDT 66.80 17 0 Not Applicable
08/29/2026 07 AM PDT 66.80 17 0 Not Applicable
08/29/2026 08 AM PDT 66.77 16 - Not Applicable
08/29/2026 09 AM PDT 66.77 16 0 Not Applicable
08/29/2026 10 AM PDT 66.77 16 0 Not Applicable
08/29/2026 11 AM PDT 66.77 16 0 Not Applicable
08/29/2026 12 PM PDT 66.77 16 0 Not Applicable
08/29/2026 01 PM PDT 66.80 17 + Not Applicable
08/29/2026 02 PM PDT 66.80 17 0 Not Applicable
08/29/2026 03 PM PDT 66.83 18 + Not Applicable
08/29/2026 04 PM PDT 66.83 18 0 Not Applicable
08/29/2026 05 PM PDT 66.86 19 + Not Applicable
08/29/2026 06 PM PDT 66.89 20 + Not Applicable
08/29/2026 07 PM PDT 66.95 22 + Not Applicable
08/29/2026 08 PM PDT 67.00 24 + Not Applicable
08/29/2026 09 PM PDT 67.00 24 0 Not Applicable
08/29/2026 10 PM PDT 67.03 25 + Not Applicable
08/29/2026 11 PM PDT 67.03 25 0 Not Applicable
08/30/2026 12 AM PDT 67.03 25 0 Not Applicable
08/30/2026 01 AM PDT 67.03 25 0 Not Applicable
08/30/2026 02 AM PDT 67.03 25 0 Not Applicable
08/30/2026 03 AM PDT 67.00 24 - Not Applicable
08/30/2026 04 AM PDT 67.00 24 0 Not Applicable
08/30/2026 05 AM PDT 66.98 23 - Not Applicable
08/30/2026 06 AM PDT 66.95 22 - Not Applicable
08/30/2026 07 AM PDT 66.95 22 0 Not Applicable
#
# FORECAST
#
# Date & Time (Local) Stage (Feet) Flow (cfs) Trend Forecast Status
# ---------------------------------------------------------------------------------
08/30/2026 08 AM PDT 66.95 22 Not Applicable
08/30/2026 09 AM PDT 66.95 22 0 Not Applicable
08/30/2026 10 AM PDT 66.94 21 - Not Applicable
08/30/2026 11 AM PDT 66.94 21 0 Not Applicable
08/30/2026 12 PM PDT 66.94 21 0 Not Applicable
08/30/2026 01 PM PDT 66.94 21 0 Not Applicable
08/30/2026 02 PM PDT 66.94 21 0 Not Applicable
08/30/2026 03 PM PDT 66.94 21 0 Not Applicable
08/30/2026 04 PM PDT 66.94 21 0 Not Applicable
08/30/2026 05 PM PDT 66.94 21 0 Not Applicable
08/30/2026 06 PM PDT 66.92 21 - Not Applicable
08/30/2026 07 PM PDT 66.92 21 0 Not Applicable
08/30/2026 08 PM PDT 66.92 21 0 Not Applicable
08/30/2026 09 PM PDT 66.92 21 0 Not Applicable
08/30/2026 10 PM PDT 66.92 21 0 Not Applicable
08/30/2026 11 PM PDT 66.92 21 0 Not Applicable
08/31/2026 12 AM PDT 66.92 21 0 Not Applicable
08/31/2026 01 AM PDT 66.92 21 0 Not Applicable
08/31/2026 02 AM PDT 66.92 21 0 Not Applicable
08/31/2026 03 AM PDT 66.92 21 0 Not Applicable
08/31/2026 04 AM PDT 66.92 21 0 Not Applicable
08/31/2026 05 AM PDT 66.92 21 0 Not Applicable
08/31/2026 06 AM PDT 66.92 21 0 Not Applicable
08/31/2026 07 AM PDT 66.92 21 0 Not Applicable
08/31/2026 08 AM PDT 66.92 21 0 Not Applicable
08/31/2026 09 AM PDT 66.92 21 0 Not Applicable
08/31/2026 10 AM PDT 66.92 21 0 Not Applicable
08/31/2026 11 AM PDT 66.92 21 0 Not Applicable
08/31/2026 12 PM PDT 66.92 21 0 Not Applicable
08/31/2026 01 PM PDT 66.92 21 0 Not Applicable
08/31/2026 02 PM PDT 66.92 21 0 Not Applicable
08/31/2026 03 PM PDT 66.92 21 0 Not Applicable
08/31/2026 04 PM PDT 66.92 21 0 Not Applicable
08/31/2026 05 PM PDT 66.92 21 0 Not Applicable
08/31/2026 06 PM PDT 66.91 20 - Not Applicable
08/31/2026 07 PM PDT 66.92 21 + Not Applicable
08/31/2026 08 PM PDT 66.92 21 0 Not Applicable
08/31/2026 09 PM PDT 66.92 21 0 Not Applicable
08/31/2026 10 PM PDT 66.92 21 0 Not Applicable
08/31/2026 11 PM PDT 66.92 21 0 Not Applicable
09/01/2026 12 AM PDT 66.92 21 0 Not Applicable
09/01/2026 01 AM PDT 66.92 21 0 Not Applicable
09/01/2026 02 AM PDT 66.92 21 0 Not Applicable
09/01/2026 03 AM PDT 66.92 21 0 Not Applicable
09/01/2026 04 AM PDT 66.92 21 0 Not Applicable
09/01/2026 05 AM PDT 66.92 21 0 Not Applicable
09/01/2026 06 AM PDT 66.92 21 0 Not Applicable
09/01/2026 07 AM PDT 66.92 21 0 Not Applicable
09/01/2026 08 AM PDT 66.92 21 0 Not Applicable
09/01/2026 09 AM PDT 66.92 21 0 Not Applicable
09/01/2026 10 AM PDT 66.92 21 0 Not Applicable
09/01/2026 11 AM PDT 66.92 21 0 Not Applicable
09/01/2026 12 PM PDT 66.92 21 0 Not Applicable
09/01/2026 01 PM PDT 66.92 21 0 Not Applicable
09/01/2026 02 PM PDT 66.92 21 0 Not Applicable
09/01/2026 03 PM PDT 66.92 21 0 Not Applicable
09/01/2026 04 PM PDT 66.92 21 0 Not Applicable
09/01/2026 05 PM PDT 66.92 21 0 Not Applicable
09/01/2026 06 PM PDT 66.91 20 - Not Applicable
09/01/2026 07 PM PDT 66.91 20 0 Not Applicable
09/01/2026 08 PM PDT 66.91 20 0 Not Applicable
09/01/2026 09 PM PDT 66.91 20 0 Not Applicable
09/01/2026 10 PM PDT 66.91 20 0 Not Applicable
09/01/2026 11 PM PDT 66.91 20 0 Not Applicable
09/02/2026 12 AM PDT 66.91 20 0 Not Applicable
09/02/2026 01 AM PDT 66.91 20 0 Not Applicable
09/02/2026 02 AM PDT 66.91 20 0 Not Applicable
09/02/2026 03 AM PDT 66.91 20 0 Not Applicable
09/02/2026 04 AM PDT 66.91 20 0 Not Applicable
09/02/2026 05 AM PDT 66.91 20 0 Not Applicable
09/02/2026 06 AM PDT 66.91 20 0 Not Applicable
09/02/2026 07 AM PDT 66.91 20 0 Not Applicable
09/02/2026 08 AM PDT 66.91 20 0 Not Applicable
09/02/2026 09 AM PDT 66.91 20 0 Not Applicable
09/02/2026 10 AM PDT 66.91 20 0 Not Applicable
09/02/2026 11 AM PDT 66.91 20 0 Not Applicable
09/02/2026 12 PM PDT 66.91 20 0 Not Applicable
09/02/2026 01 PM PDT 66.91 20 0 Not Applicable
09/02/2026 02 PM PDT 66.91 20 0 Not Applicable
09/02/2026 03 PM PDT 66.91 20 0 Not Applicable
09/02/2026 04 PM PDT 66.91 20 0 Not Applicable
09/02/2026 05 PM PDT 66.91 20 0 Not Applicable
09/02/2026 06 PM PDT 66.91 20 0 Not Applicable
09/02/2026 07 PM PDT 66.91 20 0 Not Applicable
09/02/2026 08 PM PDT 66.91 20 0 Not Applicable
09/02/2026 09 PM PDT 66.91 20 0 Not Applicable
09/02/2026 10 PM PDT 66.91 20 0 Not Applicable
09/02/2026 11 PM PDT 66.91 20 0 Not Applicable
09/03/2026 12 AM PDT 66.91 20 0 Not Applicable
09/03/2026 01 AM PDT 66.91 20 0 Not Applicable
09/03/2026 02 AM PDT 66.91 20 0 Not Applicable
09/03/2026 03 AM PDT 66.91 20 0 Not Applicable
09/03/2026 04 AM PDT 66.91 20 0 Not Applicable
09/03/2026 05 AM PDT 66.91 20 0 Not Applicable
09/03/2026 06 AM PDT 66.91 20 0 Not Applicable
09/03/2026 07 AM PDT 66.91 20 0 Not Applicable
09/03/2026 08 AM PDT 66.91 20 0 Not Applicable
09/03/2026 09 AM PDT 66.91 20 0 Not Applicable
09/03/2026 10 AM PDT 66.91 20 0 Not Applicable
09/03/2026 11 AM PDT 66.91 20 0 Not Applicable
09/03/2026 12 PM PDT 66.91 20 0 Not Applicable
09/03/2026 01 PM PDT 66.91 20 0 Not Applicable
09/03/2026 02 PM PDT 66.91 20 0 Not Applicable
09/03/2026 03 PM PDT 66.91 20 0 Not Applicable
09/03/2026 04 PM PDT 66.91 20 0 Not Applicable
09/03/2026 05 PM PDT 66.91 20 0 Not Applicable
09/03/2026 06 PM PDT 66.89 20 - Not Applicable
09/03/2026 07 PM PDT 66.89 20 0 Not Applicable
09/03/2026 08 PM PDT 66.89 20 0 Not Applicable
09/03/2026 09 PM PDT 66.89 20 0 Not Applicable
09/03/2026 10 PM PDT 66.89 20 0 Not Applicable
09/03/2026 11 PM PDT 66.89 20 0 Not Applicable
09/04/2026 12 AM PDT 66.89 20 0 Not Applicable
09/04/2026 01 AM PDT 66.89 20 0 Not Applicable
09/04/2026 02 AM PDT 66.89 20 0 Not Applicable
09/04/2026 03 AM PDT 66.89 20 0 Not Applicable
09/04/2026 04 AM PDT 66.89 20 0 Not Applicable
09/04/2026 05 AM PDT 66.89 20 0 Not Applicable
#
# NOTE 1: Stages are rounded to the nearest hundredth (.01) of a foot.
# NOTE 2: Flows are rounded to the nearest (1) cfs.
# NOTE 3: Trends are determined using hourly change in unrounded stage and flow.
# NOTE 4: Maximum Values are determined using unrounded stage and flow.
|